Location: Glendo
(42.5037°N, 105.0248°W)
Time: 02:10:09
(UTC+00:00)

Envisat - Visible Passes

Search period start: 27 January 2022 00:00
Search period end: 06 February 2022 00:00
Orbit: 764 x 766 km, 98.2° (Epoch: 26 January)

Date Brightness Start Highest point End Pass type
(mag) Time Alt. Az. Time Alt. Az. Time Alt. Az.
27 Jan 5.9 10:28:34 10° ENE 10:30:26 12° E 10:32:19 10° ESE visible
27 Jan 2.8 12:04:57 10° N 12:10:03 81° WNW 12:15:07 10° SSW visible
27 Jan 4.8 13:46:52 10° NW 13:48:12 11° WNW 13:49:33 10° WNW visible
28 Jan 3.9 11:28:14 10° NNE 11:33:07 46° E 11:37:59 10° S visible
28 Jan 4.1 13:07:56 10° NNW 13:11:50 23° WNW 13:15:43 10° WSW visible
29 Jan 5.3 10:52:11 10° NE 10:56:01 21° E 10:59:49 10° SE visible
29 Jan 3.2 12:30:23 10° N 12:35:15 47° WNW 12:40:05 10° SW visible
30 Jan 3.0 11:53:20 10° NNE 11:58:27 81° ESE 12:03:33 10° S visible
30 Jan 4.6 13:34:15 10° NNW 13:36:47 14° WNW 13:39:18 10° W visible
31 Jan 4.4 11:16:48 10° NNE 11:21:29 36° E 11:26:08 10° SSE visible
31 Jan 3.8 12:56:03 10° N 13:00:20 28° WNW 13:04:37 10° SW visible
01 Feb 5.6 10:41:05 10° NE 10:44:17 17° E 10:47:30 10° SE visible
01 Feb 2.9 12:18:41 10° N 12:23:42 59° WNW 12:28:40 10° SSW visible
02 Feb 3.3 11:41:47 10° NNE 11:46:51 63° E 11:51:52 10° S visible
02 Feb 4.4 13:22:06 10° NNW 13:25:21 17° WNW 13:28:35 10° WSW visible
03 Feb 4.8 11:05:25 10° NE 11:09:48 29° E 11:14:10 10° SSE visible
03 Feb 3.5 12:44:14 10° N 12:48:50 35° WNW 12:53:24 10° SW visible
04 Feb 5.9 10:30:18 10° ENE 10:32:33 13° E 10:34:49 10° ESE visible
04 Feb 2.8 12:07:02 10° N 12:12:08 76° WNW 12:17:11 10° SSW visible
05 Feb 3.8 11:30:17 10° NNE 11:35:13 49° E 11:40:08 10° S visible
05 Feb 4.2 13:10:06 10° NNW 13:13:53 21° WNW 13:17:38 10° WSW visible
